Location: Çayiçi
(36.4667°N, 30.2333°E)
Time: 02:41:18
(UTC+00:00)

Cosmos 1626 Rocket - Pass Details

Date: 09 February 2023
Orbit: 602 x 629 km, 82.5° (Epoch: 01 April)

Event Time Altitude Azimuth Distance (km) Brightness Sun altitude
Rises 15:59:11 0° 165° (SSE) 2,837 6.9 -5.9°
Reaches altitude 10° 16:01:31 10° 155° (SSE) 1,941 6.0 -6.3°
Maximum altitude 16:05:24 34° 91° (E) 1,007 4.2 -7.1°
Drops below altitude 10° 16:09:19 10° 27° (NNE) 1,964 5.8 -7.8°
Sets 16:11:41 0° 18° (NNE) 2,877 6.7 -8.3°
